Погода в Песчаных Ковалях

Россия / Республика Татарстан     55°37′41″N   49°08′46″E
В апреле 2022 года жителям России запретили посещать сайт meteo.paraplan.net по решению Генеральной прокуратуры. Аудитория сайта уменьшилась в 10 раз. Владельцы сайта не видят смысла в поддержке погодного сервера в таких условиях. Сайт будет закрыт в октябре.
темп.,
°C
ветер,
м/с
пор.,
м/с
влажн.,
%
обл.,
%
осадки,
мм/ч
давл.,
гПа
погр.,
м
25 сентября, вс
вс2500:00+10ююз3474100 0.0 1010128
03:00+10з1175100 0.0 100932
06:00+10вюв2277100 0.0 100944
09:00+11ююв1282100 0.8 1009124
12:00+10всв2283100 2.9 1008185
15:00+9ссв2288100 4.5 1006206
18:00+9сз228890 0.4 100597
21:00+8з3490100 0.4 1004101
26 сентября, пн
пн2600:00+8зюз1287100 0.0 100486
03:00+7ююв119049 0.0 100412
06:00+6зюз249491 0.0 100695
09:00+8ююз2484100 0.1 1007277
12:00+12ю346374 0.1 10081121
15:00+11юз457082 0.6 1010656
18:00+9ю238296 0.1 1011121
21:00+9ю117999 0.1 101259
27 сентября, вт
вт2700:00+8ююз2281100 0.0 101275
03:00+8ююв2281100 0.1 101353
06:00+8ю1182100 0.0 101321
09:00+10ссв007292 0.2 1014327
12:00+12з006198 1.1 1015919
15:00+12ссв225971 1.6 10151036
18:00+9св358095 0.6 1016140
21:00+8всв479294 1.2 1017313
28 сентября, ср
ср2800:00+6св359538 0.0 1017163
03:00+5св369293 0.0 1018252
06:00+6всв3590100 0.0 1019325
09:00+6всв3486100 0.0 1019561
12:00+6всв5586100 0.0 1019594
15:00+6всв6782100 0.1 1019653
18:00+5всв5973100 0.0 1020596
21:00+5всв61165100 0.0 1020558
29 сентября, чт
чт2900:00+3в61270100 0.0 1020492
03:00+1всв61279100 0.0 1020473
06:00+1всв61381100 0.0 1020508
09:00+3в81267100 0.0 1020694
12:00+7в8105178 0.0 10201078
15:00+8в8115040 0.0 10201268
18:00+5в7136729 0.0 1021843
21:00+5в71267100 0.0 1022854